owner,sensor,date,latitude,longitude,vertical_datum,direction_of_sea_water_velocity,sea_water_speed,upward_sea_water_velocity,qcFlag 
TABS,ioos:station:wmo:42047:1,2010-10-01T00:00:00Z,27.8966,-93.5973,2.0,334.7155886,12.40880333,-99999.0,'11111222,11111222,99999999' 
TABS,ioos:station:wmo:42047:1,2010-10-01T00:30:00Z,27.8966,-93.5973,2.0,338.6484079,11.12349316,-99999.0,'11111222,11111222,99999999' 
TABS,ioos:station:wmo:42047:1,2010-10-01T01:00:00Z,27.8966,-93.5973,2.0,322.4781852,13.52887652,-99999.0,'11111222,11111222,99999999' 
TABS,ioos:station:wmo:42047:1,2010-10-01T01:30:00Z,27.8966,-93.5973,2.0,3.885020437,10.77475754,-99999.0,'11111222,11111222,99999999' 
TABS,ioos:station:wmo:42047:1,2010-10-01T02:00:00Z,27.8966,-93.5973,2.0,328.8594699,11.09944143,-99999.0,'11111222,11111222,99999999' 
TABS,ioos:station:wmo:42047:1,2010-10-01T02:30:00Z,27.8966,-93.5973,2.0,353.1352497,12.2981706,-99999.0,'11111222,11111222,99999999' 
TABS,ioos:station:wmo:42047:1,2010-10-01T03:00:00Z,27.8966,-93.5973,2.0,339.1458012,9.213604072,-99999.0,'11133222,11111222,99999999' 
TABS,ioos:station:wmo:42047:1,2010-10-01T03:30:00Z,27.8966,-93.5973,2.0,348.0212971,12.09334528,-99999.0,'11111222,11111222,99999999' 
TABS,ioos:station:wmo:42047:1,2010-10-01T04:00:00Z,27.8966,-93.5973,2.0,346.4250875,8.137333716,-99999.0,'11133222,11111222,99999999' 
TABS,ioos:station:wmo:42047:1,2010-10-01T04:30:00Z,27.8966,-93.5973,2.0,355.5750264,8.294727241,-99999.0,'11133222,11111222,99999999' 
TABS,ioos:station:wmo:42047:1,2010-10-01T05:00:00Z,27.8966,-93.5973,2.0,353.2822316,8.206345106,-99999.0,'11133222,11111222,99999999' 
TABS,ioos:station:wmo:42047:1,2010-10-01T05:30:00Z,27.8966,-93.5973,2.0,354.9314581,7.017442554,-99999.0,'11133222,11111222,99999999' 
TABS,ioos:station:wmo:42047:1,2010-10-01T06:00:00Z,27.8966,-93.5973,2.0,9.579096589,7.271382262,-99999.0,'11133222,11111222,99999999' 
TABS,ioos:station:wmo:42047:1,2010-10-01T06:30:00Z,27.8966,-93.5973,2.0,29.11332444,8.550233915,-99999.0,'11133222,11111222,99999999' 
TABS,ioos:station:wmo:42047:1,2010-10-01T07:00:00Z,27.8966,-93.5973,2.0,43.15843604,8.800954494,-99999.0,'11133222,11111222,99999999' 
TABS,ioos:station:wmo:42047:1,2010-10-01T07:30:00Z,27.8966,-93.5973,2.0,34.97288547,7.31000684,-99999.0,'11133222,11111222,99999999' 
TABS,ioos:station:wmo:42047:1,2010-10-01T08:00:00Z,27.8966,-93.5973,2.0,38.92766302,9.692249481,-99999.0,'11133222,11111222,99999999' 
TABS,ioos:station:wmo:42047:1,2010-10-01T08:30:00Z,27.8966,-93.5973,2.0,48.41749313,7.473265685,-99999.0,'11133222,11111222,99999999' 
TABS,ioos:station:wmo:42047:1,2010-10-01T09:00:00Z,27.8966,-93.5973,2.0,53.36315212,8.362069122,-99999.0,'11133222,11111222,99999999' 
TABS,ioos:station:wmo:42047:1,2010-10-01T09:30:00Z,27.8966,-93.5973,2.0,43.71949187,9.491743781,-99999.0,'11133222,11111222,99999999' 
TABS,ioos:station:wmo:42047:1,2010-10-01T10:00:00Z,27.8966,-93.5973,2.0,44.22238405,7.814249804,-99999.0,'11133222,11111222,99999999' 
TABS,ioos:station:wmo:42047:1,2010-10-01T10:30:00Z,27.8966,-93.5973,2.0,28.08295653,9.792941335,-99999.0,'11133222,11111222,99999999' 
TABS,ioos:station:wmo:42047:1,2010-10-01T11:00:00Z,27.8966,-93.5973,2.0,50.93857945,6.014399388,-99999.0,'11133222,11111222,99999999' 
TABS,ioos:station:wmo:42047:1,2010-10-01T11:30:00Z,27.8966,-93.5973,2.0,77.96783619,5.75646593,-99999.0,'11133222,11111222,99999999' 
TABS,ioos:station:wmo:42047:1,2010-10-01T12:00:00Z,27.8966,-93.5973,2.0,52.44063534,3.822276808,-99999.0,'11133222,11111222,99999999' 
TABS,ioos:station:wmo:42047:1,2010-10-01T12:30:00Z,27.8966,-93.5973,2.0,28.71223272,5.849187978,-99999.0,'11133222,11111222,99999999' 
TABS,ioos:station:wmo:42047:1,2010-10-01T13:00:00Z,27.8966,-93.5973,2.0,87.70939531,4.003198721,-99999.0,'11133222,11111222,99999999' 
TABS,ioos:station:wmo:42047:1,2010-10-01T13:30:00Z,27.8966,-93.5973,2.0,32.19218947,4.880256141,-99999.0,'11133222,11111222,99999999' 
TABS,ioos:station:wmo:42047:1,2010-10-01T14:00:00Z,27.8966,-93.5973,2.0,276.0489134,3.036906321,-99999.0,'11133222,11111222,99999999' 
TABS,ioos:station:wmo:42047:1,2010-10-01T14:30:00Z,27.8966,-93.5973,2.0,330.3846015,6.050429737,-99999.0,'11133222,11111222,99999999' 
TABS,ioos:station:wmo:42047:1,2010-10-01T15:00:00Z,27.8966,-93.5973,2.0,0.0,0.0,-99999.0,'1114422,1114422,1199999999' 
TABS,ioos:station:wmo:42047:1,2010-10-01T15:30:00Z,27.8966,-93.5973,2.0,338.4922274,9.791843545,-99999.0,'11133222,11111222,99999999' 
TABS,ioos:station:wmo:42047:1,2010-10-01T16:00:00Z,27.8966,-93.5973,2.0,342.6326228,12.56274651,-99999.0,'11111222,11111222,99999999' 
TABS,ioos:station:wmo:42047:1,2010-10-01T16:30:00Z,27.8966,-93.5973,2.0,324.9855249,10.31740762,-99999.0,'11111222,11111222,99999999' 
TABS,ioos:station:wmo:42047:1,2010-10-01T17:00:00Z,27.8966,-93.5973,2.0,310.3096422,5.533967835,-99999.0,'11133222,11111222,99999999' 
TABS,ioos:station:wmo:42047:1,2010-10-01T17:30:00Z,27.8966,-93.5973,2.0,314.6506517,8.110665817,-99999.0,'11133222,11111222,99999999' 
TABS,ioos:station:wmo:42047:1,2010-10-01T18:00:00Z,27.8966,-93.5973,2.0,326.4161285,9.002799565,-99999.0,'11133222,11111222,99999999' 
TABS,ioos:station:wmo:42047:1,2010-10-01T18:30:00Z,27.8966,-93.5973,2.0,323.1967262,10.36600695,-99999.0,'11111222,11111222,99999999' 
TABS,ioos:station:wmo:42047:1,2010-10-01T19:00:00Z,27.8966,-93.5973,2.0,319.2086956,11.75552636,-99999.0,'11111222,11111222,99999999' 
TABS,ioos:station:wmo:42047:1,2010-10-01T19:30:00Z,27.8966,-93.5973,2.0,331.4143225,13.06228923,-99999.0,'11111222,11111222,99999999' 
TABS,ioos:station:wmo:42047:1,2010-10-01T20:00:00Z,27.8966,-93.5973,2.0,323.8621594,10.64886848,-99999.0,'11111222,11111222,99999999' 
TABS,ioos:station:wmo:42047:1,2010-10-01T20:30:00Z,27.8966,-93.5973,2.0,329.7547063,15.1873928,-99999.0,'11111222,11111222,99999999' 
TABS,ioos:station:wmo:42047:1,2010-10-01T21:00:00Z,27.8966,-93.5973,2.0,333.6769737,12.71886787,-99999.0,'11111222,11111222,99999999' 
TABS,ioos:station:wmo:42047:1,2010-10-01T21:30:00Z,27.8966,-93.5973,2.0,333.9168306,14.89721115,-99999.0,'11111222,11111222,99999999' 
TABS,ioos:station:wmo:42047:1,2010-10-01T22:00:00Z,27.8966,-93.5973,2.0,325.1472171,12.16153362,-99999.0,'11111222,11111222,99999999' 
TABS,ioos:station:wmo:42047:1,2010-10-01T22:30:00Z,27.8966,-93.5973,2.0,341.4904411,14.52119141,-99999.0,'11111222,11111222,99999999' 
TABS,ioos:station:wmo:42047:1,2010-10-01T23:00:00Z,27.8966,-93.5973,2.0,345.3600736,17.48779003,-99999.0,'11111222,11111222,99999999' 
TABS,ioos:station:wmo:42047:1,2010-10-01T23:30:00Z,27.8966,-93.5973,2.0,343.8135161,14.3488118,-99999.0,'11111222,11111222,99999999' 
TABS,ioos:station:wmo:42047:1,2010-10-02T00:00:00Z,27.8966,-93.5973,2.0,343.3523853,16.02156671,-99999.0,'11111222,11111222,99999999' 
TABS,ioos:station:wmo:42047:1,2010-10-02T00:30:00Z,27.8966,-93.5973,2.0,348.4799175,12.81823701,-99999.0,'11111222,11111222,99999999' 
TABS,ioos:station:wmo:42047:1,2010-10-02T01:00:00Z,27.8966,-93.5973,2.0,4.243286735,15.81334247,-99999.0,'11111222,11111222,99999999' 
TABS,ioos:station:wmo:42047:1,2010-10-02T01:30:00Z,27.8966,-93.5973,2.0,350.5834614,12.40719549,-99999.0,'11111222,11111222,99999999' 
TABS,ioos:station:wmo:42047:1,2010-10-02T02:00:00Z,27.8966,-93.5973,2.0,10.09259524,10.61424043,-99999.0,'11111222,11111222,99999999' 
TABS,ioos:station:wmo:42047:1,2010-10-02T02:30:00Z,27.8966,-93.5973,2.0,3.284392636,14.31350761,-99999.0,'11111222,11111222,99999999' 
TABS,ioos:station:wmo:42047:1,2010-10-02T03:00:00Z,27.8966,-93.5973,2.0,0.472849426,10.91037121,-99999.0,'11111222,11111222,99999999' 
TABS,ioos:station:wmo:42047:1,2010-10-02T03:30:00Z,27.8966,-93.5973,2.0,9.879876893,10.60730409,-99999.0,'11111222,11111222,99999999' 
TABS,ioos:station:wmo:42047:1,2010-10-02T04:00:00Z,27.8966,-93.5973,2.0,20.04361955,12.16691415,-99999.0,'11111222,11111222,99999999' 
TABS,ioos:station:wmo:42047:1,2010-10-02T04:30:00Z,27.8966,-93.5973,2.0,19.69878577,12.9052315,-99999.0,'11111222,11111222,99999999' 
TABS,ioos:station:wmo:42047:1,2010-10-02T05:00:00Z,27.8966,-93.5973,2.0,3.148037405,10.92648617,-99999.0,'11111222,11111222,99999999' 
TABS,ioos:station:wmo:42047:1,2010-10-02T05:30:00Z,27.8966,-93.5973,2.0,20.39942887,9.410143463,-99999.0,'11133222,11111222,99999999' 
TABS,ioos:station:wmo:42047:1,2010-10-02T06:00:00Z,27.8966,-93.5973,2.0,27.06531247,8.197737493,-99999.0,'11133222,11111222,99999999' 
TABS,ioos:station:wmo:42047:1,2010-10-02T06:30:00Z,27.8966,-93.5973,2.0,35.94098474,9.251216136,-99999.0,'11133222,11111222,99999999' 
TABS,ioos:station:wmo:42047:1,2010-10-02T07:00:00Z,27.8966,-93.5973,2.0,29.10647303,9.682752708,-99999.0,'11133222,11111222,99999999' 
TABS,ioos:station:wmo:42047:1,2010-10-02T07:30:00Z,27.8966,-93.5973,2.0,66.41785914,7.648771143,-99999.0,'11133222,11111222,99999999' 
TABS,ioos:station:wmo:42047:1,2010-10-02T08:00:00Z,27.8966,-93.5973,2.0,61.64826299,7.601855037,-99999.0,'11133222,11111222,99999999' 
TABS,ioos:station:wmo:42047:1,2010-10-02T08:30:00Z,27.8966,-93.5973,2.0,33.94165183,8.847553334,-99999.0,'11133222,11111222,99999999' 
TABS,ioos:station:wmo:42047:1,2010-10-02T09:00:00Z,27.8966,-93.5973,2.0,77.2404369,5.116346353,-99999.0,'11133222,11111222,99999999' 
TABS,ioos:station:wmo:42047:1,2010-10-02T09:30:00Z,27.8966,-93.5973,2.0,41.18006479,9.021513177,-99999.0,'11133222,11111222,99999999' 
TABS,ioos:station:wmo:42047:1,2010-10-02T10:00:00Z,27.8966,-93.5973,2.0,49.98709336,8.134236289,-99999.0,'11133222,11111222,99999999' 
TABS,ioos:station:wmo:42047:1,2010-10-02T10:30:00Z,27.8966,-93.5973,2.0,44.23061291,11.58345372,-99999.0,'11111222,11111222,99999999' 
TABS,ioos:station:wmo:42047:1,2010-10-02T11:00:00Z,27.8966,-93.5973,2.0,74.80982543,5.419344979,-99999.0,'11133222,11111222,99999999' 
TABS,ioos:station:wmo:42047:1,2010-10-02T11:30:00Z,27.8966,-93.5973,2.0,50.01134623,7.609270662,-99999.0,'11133222,11111222,99999999' 
TABS,ioos:station:wmo:42047:1,2010-10-02T12:00:00Z,27.8966,-93.5973,2.0,47.26432203,8.590983646,-99999.0,'11133222,11111222,99999999' 
TABS,ioos:station:wmo:42047:1,2010-10-02T12:30:00Z,27.8966,-93.5973,2.0,63.43501094,5.053513629,-99999.0,'11133222,11111222,99999999' 
TABS,ioos:station:wmo:42047:1,2010-10-02T13:00:00Z,27.8966,-93.5973,2.0,75.65511294,5.852469564,-99999.0,'11133222,11111222,99999999' 
TABS,ioos:station:wmo:42047:1,2010-10-02T13:30:00Z,27.8966,-93.5973,2.0,194.0360002,3.051098163,-99999.0,'11133222,11111222,99999999' 
TABS,ioos:station:wmo:42047:1,2010-10-02T14:00:00Z,27.8966,-93.5973,2.0,28.36276101,3.1365108,-99999.0,'11133222,11111222,99999999' 
TABS,ioos:station:wmo:42047:1,2010-10-02T14:30:00Z,27.8966,-93.5973,2.0,289.1793841,2.435159132,-99999.0,'11133222,11111222,99999999' 
TABS,ioos:station:wmo:42047:1,2010-10-02T15:00:00Z,27.8966,-93.5973,2.0,350.3390043,8.997610794,-99999.0,'11133222,11111222,99999999' 
TABS,ioos:station:wmo:42047:1,2010-10-02T15:30:00Z,27.8966,-93.5973,2.0,72.74108607,1.07856386,-99999.0,'11133222,11111222,99999999' 
TABS,ioos:station:wmo:42047:1,2010-10-02T16:00:00Z,27.8966,-93.5973,2.0,327.028089,9.297505042,-99999.0,'11133222,11111222,99999999' 
TABS,ioos:station:wmo:42047:1,2010-10-02T16:30:00Z,27.8966,-93.5973,2.0,75.99993802,3.844190422,-99999.0,'11133222,11111222,99999999' 
TABS,ioos:station:wmo:42047:1,2010-10-02T17:00:00Z,27.8966,-93.5973,2.0,63.39571352,6.520375756,-99999.0,'11133222,11111222,99999999' 
TABS,ioos:station:wmo:42047:1,2010-10-02T17:30:00Z,27.8966,-93.5973,2.0,94.03770118,0.852115016,-99999.0,'11133222,11111222,99999999' 
TABS,ioos:station:wmo:42047:1,2010-10-02T18:00:00Z,27.8966,-93.5973,2.0,19.98327025,1.755704987,-99999.0,'11133222,11111222,99999999' 
TABS,ioos:station:wmo:42047:1,2010-10-02T18:30:00Z,27.8966,-93.5973,2.0,227.464052,2.795657347,-99999.0,'11133222,11111222,99999999' 
TABS,ioos:station:wmo:42047:1,2010-10-02T19:00:00Z,27.8966,-93.5973,2.0,105.5240747,0.747261668,-99999.0,'11133222,11111222,99999999' 
TABS,ioos:station:wmo:42047:1,2010-10-02T19:30:00Z,27.8966,-93.5973,2.0,62.40936727,1.748885359,-99999.0,'11133222,11111222,99999999' 
TABS,ioos:station:wmo:42047:1,2010-10-02T20:00:00Z,27.8966,-93.5973,2.0,345.5214003,6.279434688,-99999.0,'11133222,11111222,99999999' 
TABS,ioos:station:wmo:42047:1,2010-10-02T20:30:00Z,27.8966,-93.5973,2.0,312.3461264,5.344389582,-99999.0,'11133222,11111222,99999999' 
TABS,ioos:station:wmo:42047:1,2010-10-02T21:00:00Z,27.8966,-93.5973,2.0,37.91114809,4.182690522,-99999.0,'11133222,11111222,99999999' 
TABS,ioos:station:wmo:42047:1,2010-10-02T21:30:00Z,27.8966,-93.5973,2.0,314.1974993,5.551333173,-99999.0,'11133222,11111222,99999999' 
TABS,ioos:station:wmo:42047:1,2010-10-02T22:00:00Z,27.8966,-93.5973,2.0,6.831200434,5.801180914,-99999.0,'11133222,11111222,99999999' 
TABS,ioos:station:wmo:42047:1,2010-10-02T22:30:00Z,27.8966,-93.5973,2.0,347.9931119,8.219835765,-99999.0,'11133222,11111222,99999999' 
TABS,ioos:station:wmo:42047:1,2010-10-02T23:00:00Z,27.8966,-93.5973,2.0,356.4280082,8.666839101,-99999.0,'11133222,11111222,99999999' 
TABS,ioos:station:wmo:42047:1,2010-10-02T23:30:00Z,27.8966,-93.5973,2.0,310.6739483,5.155356438,-99999.0,'11133222,11111222,99999999' 
TABS,ioos:station:wmo:42047:1,2010-10-03T00:00:00Z,27.8966,-93.5973,2.0,5.737674458,10.60311747,-99999.0,'11111222,11111222,99999999' 
TABS,ioos:station:wmo:42047:1,2010-10-03T00:30:00Z,27.8966,-93.5973,2.0,10.70244081,9.800474478,-99999.0,'11133222,11111222,99999999' 
TABS,ioos:station:wmo:42047:1,2010-10-03T01:00:00Z,27.8966,-93.5973,2.0,32.91685163,9.86346795,-99999.0,'11133222,11111222,99999999' 
TABS,ioos:station:wmo:42047:1,2010-10-03T01:30:00Z,27.8966,-93.5973,2.0,355.1513693,13.9599606,-99999.0,'11111222,11111222,99999999' 
TABS,ioos:station:wmo:42047:1,2010-10-03T02:00:00Z,27.8966,-93.5973,2.0,334.1053154,7.647875522,-99999.0,'11133222,11111222,99999999' 
TABS,ioos:station:wmo:42047:1,2010-10-03T02:30:00Z,27.8966,-93.5973,2.0,345.4448607,8.833510061,-99999.0,'11133222,11111222,99999999' 
TABS,ioos:station:wmo:42047:1,2010-10-03T03:00:00Z,27.8966,-93.5973,2.0,351.9645185,9.44271677,-99999.0,'11133222,11111222,99999999' 
TABS,ioos:station:wmo:42047:1,2010-10-03T03:30:00Z,27.8966,-93.5973,2.0,241.0174316,3.075093495,-99999.0,'11133222,11111222,99999999' 
TABS,ioos:station:wmo:42047:1,2010-10-03T04:00:00Z,27.8966,-93.5973,2.0,3.196912107,7.531719591,-99999.0,'11133222,11111222,99999999' 
TABS,ioos:station:wmo:42047:1,2010-10-03T04:30:00Z,27.8966,-93.5973,2.0,22.2322144,5.682437857,-99999.0,'11133222,11111222,99999999' 
TABS,ioos:station:wmo:42047:1,2010-10-03T05:00:00Z,27.8966,-93.5973,2.0,9.354920981,11.38136196,-99999.0,'11111222,11111222,99999999' 
TABS,ioos:station:wmo:42047:1,2010-10-03T05:30:00Z,27.8966,-93.5973,2.0,13.30360979,6.257930968,-99999.0,'11133222,11111222,99999999' 
TABS,ioos:station:wmo:42047:1,2010-10-03T06:00:00Z,27.8966,-93.5973,2.0,22.73216064,6.288473583,-99999.0,'11133222,11111222,99999999' 
TABS,ioos:station:wmo:42047:1,2010-10-03T06:30:00Z,27.8966,-93.5973,2.0,12.37701139,13.90312195,-99999.0,'11111222,11111222,99999999' 
TABS,ioos:station:wmo:42047:1,2010-10-03T07:00:00Z,27.8966,-93.5973,2.0,34.62428457,12.24940815,-99999.0,'11111222,11111222,99999999' 
TABS,ioos:station:wmo:42047:1,2010-10-03T07:30:00Z,27.8966,-93.5973,2.0,23.52006489,14.98492576,-99999.0,'11111222,11111222,99999999' 
TABS,ioos:station:wmo:42047:1,2010-10-03T08:00:00Z,27.8966,-93.5973,2.0,36.96846792,9.312013746,-99999.0,'11133222,11111222,99999999' 
TABS,ioos:station:wmo:42047:1,2010-10-03T08:30:00Z,27.8966,-93.5973,2.0,17.82816357,12.83640526,-99999.0,'11111222,11111222,99999999' 
TABS,ioos:station:wmo:42047:1,2010-10-03T09:00:00Z,27.8966,-93.5973,2.0,51.63260433,6.122091146,-99999.0,'11133222,11111222,99999999' 
TABS,ioos:station:wmo:42047:1,2010-10-03T09:30:00Z,27.8966,-93.5973,2.0,19.13917469,8.235192772,-99999.0,'11133222,11111222,99999999' 
TABS,ioos:station:wmo:42047:1,2010-10-03T10:00:00Z,27.8966,-93.5973,2.0,35.5032689,5.785646031,-99999.0,'11133222,11111222,99999999' 
TABS,ioos:station:wmo:42047:1,2010-10-03T10:30:00Z,27.8966,-93.5973,2.0,32.78643339,4.044267548,-99999.0,'11133222,11111222,99999999' 
TABS,ioos:station:wmo:42047:1,2010-10-03T11:00:00Z,27.8966,-93.5973,2.0,311.1218003,0.836301381,-99999.0,'11133222,11111222,99999999' 
TABS,ioos:station:wmo:42047:1,2010-10-03T11:30:00Z,27.8966,-93.5973,2.0,316.5605117,1.817938393,-99999.0,'11133222,11111222,99999999' 
TABS,ioos:station:wmo:42047:1,2010-10-03T12:00:00Z,27.8966,-93.5973,2.0,208.7902923,11.17087732,-99999.0,'11111222,11111222,99999999' 
TABS,ioos:station:wmo:42047:1,2010-10-03T12:30:00Z,27.8966,-93.5973,2.0,313.9477582,2.694531499,-99999.0,'11133222,11111222,99999999' 
TABS,ioos:station:wmo:42047:1,2010-10-03T13:00:00Z,27.8966,-93.5973,2.0,17.79723554,6.249047927,-99999.0,'11133222,11111222,99999999' 
TABS,ioos:station:wmo:42047:1,2010-10-03T13:30:00Z,27.8966,-93.5973,2.0,337.4177327,3.541539213,-99999.0,'11133222,11111222,99999999' 
TABS,ioos:station:wmo:42047:1,2010-10-03T14:00:00Z,27.8966,-93.5973,2.0,297.2577708,7.401925425,-99999.0,'11133222,11111222,99999999' 
TABS,ioos:station:wmo:42047:1,2010-10-03T14:30:00Z,27.8966,-93.5973,2.0,278.3355968,13.03771836,-99999.0,'11111222,11111222,99999999' 
TABS,ioos:station:wmo:42047:1,2010-10-03T15:00:00Z,27.8966,-93.5973,2.0,231.9440794,9.18196602,-99999.0,'11133222,11111222,99999999' 
TABS,ioos:station:wmo:42047:1,2010-10-03T15:30:00Z,27.8966,-93.5973,2.0,239.9977023,4.699723396,-99999.0,'11133222,11111222,99999999' 
TABS,ioos:station:wmo:42047:1,2010-10-03T16:00:00Z,27.8966,-93.5973,2.0,309.3859017,4.192040076,-99999.0,'11133222,11111222,99999999' 
TABS,ioos:station:wmo:42047:1,2010-10-03T16:30:00Z,27.8966,-93.5973,2.0,258.1109488,8.737419528,-99999.0,'11133222,11111222,99999999' 
TABS,ioos:station:wmo:42047:1,2010-10-03T17:00:00Z,27.8966,-93.5973,2.0,264.0305702,11.25099996,-99999.0,'11111222,11111222,99999999' 
TABS,ioos:station:wmo:42047:1,2010-10-03T17:30:00Z,27.8966,-93.5973,2.0,247.9036886,6.141025973,-99999.0,'11133222,11111222,99999999' 
TABS,ioos:station:wmo:42047:1,2010-10-03T18:00:00Z,27.8966,-93.5973,2.0,315.4294885,11.32816843,-99999.0,'11111222,11111222,99999999' 
TABS,ioos:station:wmo:42047:1,2010-10-03T18:30:00Z,27.8966,-93.5973,2.0,262.0880734,14.45761045,-99999.0,'11111222,11111222,99999999' 
TABS,ioos:station:wmo:42047:1,2010-10-03T19:00:00Z,27.8966,-93.5973,2.0,311.81375,16.66398812,-99999.0,'11111222,11111222,99999999' 
TABS,ioos:station:wmo:42047:1,2010-10-03T19:30:00Z,27.8966,-93.5973,2.0,307.4962265,7.688458883,-99999.0,'11133222,11111222,99999999' 
TABS,ioos:station:wmo:42047:1,2010-10-03T20:00:00Z,27.8966,-93.5973,2.0,302.5318051,13.85369626,-99999.0,'11111222,11111222,99999999' 
TABS,ioos:station:wmo:42047:1,2010-10-03T20:30:00Z,27.8966,-93.5973,2.0,306.1018012,9.096818125,-99999.0,'11133222,11111222,99999999' 
TABS,ioos:station:wmo:42047:1,2010-10-03T21:00:00Z,27.8966,-93.5973,2.0,316.9615013,12.19059063,-99999.0,'11111222,11111222,99999999' 
TABS,ioos:station:wmo:42047:1,2010-10-03T21:30:00Z,27.8966,-93.5973,2.0,302.7692602,13.28401295,-99999.0,'11111222,11111222,99999999' 
TABS,ioos:station:wmo:42047:1,2010-10-03T22:00:00Z,27.8966,-93.5973,2.0,323.6060324,14.69650639,-99999.0,'11111222,11111222,99999999' 
TABS,ioos:station:wmo:42047:1,2010-10-03T22:30:00Z,27.8966,-93.5973,2.0,339.11511,10.79956481,-99999.0,'11111222,11111222,99999999' 
TABS,ioos:station:wmo:42047:1,2010-10-03T23:00:00Z,27.8966,-93.5973,2.0,325.3363656,10.44373975,-99999.0,'11111222,11111222,99999999' 
TABS,ioos:station:wmo:42047:1,2010-10-03T23:30:00Z,27.8966,-93.5973,2.0,338.2840625,12.48616835,-99999.0,'11111222,11111222,99999999' 
TABS,ioos:station:wmo:42047:1,2010-10-04T00:00:00Z,27.8966,-93.5973,2.0,345.4881692,12.84998054,-99999.0,'11111222,11111222,99999999' 
TABS,ioos:station:wmo:42047:1,2010-10-04T00:30:00Z,27.8966,-93.5973,2.0,343.1020759,14.62130637,-99999.0,'11111222,11111222,99999999' 
TABS,ioos:station:wmo:42047:1,2010-10-04T01:00:00Z,27.8966,-93.5973,2.0,346.0008601,18.84987268,-99999.0,'11111222,11111222,99999999' 
TABS,ioos:station:wmo:42047:1,2010-10-04T01:30:00Z,27.8966,-93.5973,2.0,348.0588149,19.57357913,-99999.0,'11111222,11111222,99999999' 
TABS,ioos:station:wmo:42047:1,2010-10-04T02:00:00Z,27.8966,-93.5973,2.0,352.423691,14.63779355,-99999.0,'11111222,11111222,99999999' 
TABS,ioos:station:wmo:42047:1,2010-10-04T02:30:00Z,27.8966,-93.5973,2.0,351.7299681,10.9842296,-99999.0,'11111222,11111222,99999999' 
TABS,ioos:station:wmo:42047:1,2010-10-04T03:00:00Z,27.8966,-93.5973,2.0,9.321249372,13.33608638,-99999.0,'11111222,11111222,99999999' 
TABS,ioos:station:wmo:42047:1,2010-10-04T03:30:00Z,27.8966,-93.5973,2.0,358.2682565,13.89634844,-99999.0,'11111222,11111222,99999999' 
TABS,ioos:station:wmo:42047:1,2010-10-04T04:00:00Z,27.8966,-93.5973,2.0,11.60911257,18.03900773,-99999.0,'11111222,11111222,99999999' 
TABS,ioos:station:wmo:42047:1,2010-10-04T04:30:00Z,27.8966,-93.5973,2.0,1.056772667,9.761659695,-99999.0,'11133222,11111222,99999999' 
TABS,ioos:station:wmo:42047:1,2010-10-04T05:00:00Z,27.8966,-93.5973,2.0,2.592751167,10.39063521,-99999.0,'11111222,11111222,99999999' 
TABS,ioos:station:wmo:42047:1,2010-10-04T05:30:00Z,27.8966,-93.5973,2.0,350.8511587,9.622416536,-99999.0,'11133222,11111222,99999999' 
TABS,ioos:station:wmo:42047:1,2010-10-04T06:00:00Z,27.8966,-93.5973,2.0,336.1598215,7.150083916,-99999.0,'11133222,11111222,99999999' 
TABS,ioos:station:wmo:42047:1,2010-10-04T06:30:00Z,27.8966,-93.5973,2.0,354.7308555,9.690954545,-99999.0,'11133222,11111222,99999999' 
TABS,ioos:station:wmo:42047:1,2010-10-04T07:00:00Z,27.8966,-93.5973,2.0,259.9813121,6.438167441,-99999.0,'11133222,11111222,99999999' 
TABS,ioos:station:wmo:42047:1,2010-10-04T07:30:00Z,27.8966,-93.5973,2.0,350.3505829,3.519801131,-99999.0,'11133222,11111222,99999999' 
TABS,ioos:station:wmo:42047:1,2010-10-04T08:00:00Z,27.8966,-93.5973,2.0,302.6195877,4.452246624,-99999.0,'11133222,11111222,99999999' 
TABS,ioos:station:wmo:42047:1,2010-10-04T08:30:00Z,27.8966,-93.5973,2.0,337.2537402,3.82770166,-99999.0,'11133222,11111222,99999999' 
TABS,ioos:station:wmo:42047:1,2010-10-04T09:00:00Z,27.8966,-93.5973,2.0,264.5687805,2.852805637,-99999.0,'11133222,11111222,99999999' 
TABS,ioos:station:wmo:42047:1,2010-10-04T09:30:00Z,27.8966,-93.5973,2.0,252.1460072,5.610169338,-99999.0,'11133222,11111222,99999999' 
TABS,ioos:station:wmo:42047:1,2010-10-04T10:00:00Z,27.8966,-93.5973,2.0,298.4959929,3.98246155,-99999.0,'11133222,11111222,99999999' 
TABS,ioos:station:wmo:42047:1,2010-10-04T10:30:00Z,27.8966,-93.5973,2.0,186.186542,3.711616898,-99999.0,'11133222,11111222,99999999' 
TABS,ioos:station:wmo:42047:1,2010-10-04T11:00:00Z,27.8966,-93.5973,2.0,217.9568878,3.056550343,-99999.0,'11133222,11111222,99999999' 
TABS,ioos:station:wmo:42047:1,2010-10-04T11:30:00Z,27.8966,-93.5973,2.0,206.775941,3.64034339,-99999.0,'11133222,11111222,99999999' 
TABS,ioos:station:wmo:42047:1,2010-10-04T12:00:00Z,27.8966,-93.5973,2.0,213.8464304,4.057647101,-99999.0,'11133222,11111222,99999999' 
TABS,ioos:station:wmo:42047:1,2010-10-04T12:30:00Z,27.8966,-93.5973,2.0,173.1400456,2.679178979,-99999.0,'11133222,11111222,99999999' 
TABS,ioos:station:wmo:42047:1,2010-10-04T13:00:00Z,27.8966,-93.5973,2.0,266.7549993,4.417080484,-99999.0,'11133222,11111222,99999999' 
TABS,ioos:station:wmo:42047:1,2010-10-04T13:30:00Z,27.8966,-93.5973,2.0,224.5941607,6.993461232,-99999.0,'11133222,11111222,99999999' 
TABS,ioos:station:wmo:42047:1,2010-10-04T14:00:00Z,27.8966,-93.5973,2.0,269.2905108,4.040309394,-99999.0,'11133222,11111222,99999999' 
TABS,ioos:station:wmo:42047:1,2010-10-04T14:30:00Z,27.8966,-93.5973,2.0,329.470576,0.452769257,-99999.0,'11133222,11111222,99999999' 
TABS,ioos:station:wmo:42047:1,2010-10-04T15:00:00Z,27.8966,-93.5973,2.0,280.3801069,2.053606584,-99999.0,'11133222,11111222,99999999' 
TABS,ioos:station:wmo:42047:1,2010-10-04T15:30:00Z,27.8966,-93.5973,2.0,316.0894553,1.860026882,-99999.0,'11133222,11111222,99999999' 
TABS,ioos:station:wmo:42047:1,2010-10-04T16:00:00Z,27.8966,-93.5973,2.0,230.0933553,5.09715607,-99999.0,'11133222,11111222,99999999' 